Location: Poprad
(49.0500°N, 20.3000°E)
Time: 02:46:29
(UTC+02:00)

AO-91 - Visible Passes

Search period start: 24 April 2024 00:00
Search period end: 04 May 2024 00:00
Orbit: 441 x 742 km, 97.6° (Epoch: 23 April)

Date Brightness Start Highest point End Pass type
(mag) Time Alt. Az. Time Alt. Az. Time Alt. Az.
24 Apr ? 22:31:50 10° NNE 22:34:41 63° N 22:34:41 63° N visible
25 Apr ? 22:40:18 10° N 22:43:21 63° NW 22:43:21 63° NW visible
26 Apr ? 21:14:59 10° ENE 21:15:25 11° ENE 21:15:25 11° ENE visible
26 Apr ? 22:48:45 10° N 22:51:59 52° WNW 22:51:59 52° WNW visible
27 Apr ? 21:22:39 10° ENE 21:24:02 14° E 21:24:02 14° E visible
27 Apr ? 22:57:11 10° N 23:00:23 41° WNW 23:00:36 40° W visible
28 Apr ? 21:30:36 10° NE 21:32:37 17° E 21:32:37 17° E visible
28 Apr ? 23:05:38 10° N 23:08:43 33° WNW 23:09:11 31° W visible
29 Apr ? 21:38:39 10° NE 21:41:10 22° E 21:41:10 22° E visible
29 Apr ? 23:14:04 10° N 23:17:00 27° WNW 23:17:44 25° W visible
30 Apr ? 21:46:44 10° NE 21:49:42 27° E 21:49:42 27° E visible
30 Apr ? 23:22:31 10° NNW 23:25:15 23° WNW 23:26:16 20° W visible
01 May ? 21:54:50 10° NNE 21:58:02 34° E 21:58:12 34° ESE visible
01 May ? 23:30:58 10° NNW 23:33:28 19° WNW 23:34:46 16° W visible
02 May ? 22:02:57 10° NNE 22:06:17 43° E 22:06:41 41° ESE visible
02 May ? 23:39:27 10° NNW 23:41:39 16° WNW 23:43:15 13° W visible
03 May ? 22:11:05 10° NNE 22:14:31 54° E 22:15:08 47° SE visible
03 May ? 23:47:59 10° NNW 23:49:47 14° WNW 23:51:39 10° W visible
